CZ-4C R/B

Satellite information

Favourite Embed

Satellite Type and Status

ROCKET BODYIN ORBIT

Key statistics

Satellite CZ-4C R/B at a glance.

Uptime

704

Days in orbit

Revolutions

≈ 14.6

Per day

Orbit

SSO

Sun Synchronous Orbit

Inclination

98.8

Latest

Satellite identification and parameters

Extended collection of information and parameters for CZ-4C R/B.

Object identification

Identified? True

Debris? False

Object name: CZ-4C R/B

International designator: 2023-111B

Object number (NORAD): 57491

Object ID (CCSDS): 57491

Country: PEOPLES REPUBLIC OF CHINA (PRC)

Current information (Y/N): Y

RCS size: LARGE

Orbital parameters

Period: 98.85 minutes

Inclination: 98.7835 deg

SMA: 7081.833 km

Apoapsis: 801.926 km

Periapsis: 605.47 km

RAAN: 300.8145 deg

Eccentricy: 0.0138704

Argument of periapsis: 64.5953 deg

Mean anomaly: 296.9526 deg

Mean motion: 14.567474 rev/day

Mean motion (dot): 0.0000034 rev/day2

B* drag term: 0.000078221 1/REarth

Two-line elements (TLE)

Creation date: July 5, 2025, 11:06 p.m.

Reference frame: TEME

Reference center: EARTH

Epoch: July 5, 2025, 9:34 p.m. UTC

TLE line 0: 0 CZ-4C R/B

TLE line 1: 1 57491U 23111B 25186.89866776 .00000340 00000-0 78221-4 0 9994

TLE line 2: 2 57491 98.7835 300.8145 0138704 64.5953 296.9526 14.56747400102240

Live tracking on map

Real-time ground track for satellite CZ-4C R/B.

In-orbit conjunctions

A list of the most updated potential collisions computed for object CZ-4C R/B.

Target Orbit TCA Probability of collision Miss distance Type
COSMOS 2251 DEB LEO 2025-05-14 23:38:47 0.0001095242 422.0 (m) DEBRIS
CZ-6A DEB SSO 2025-05-14 08:55:15 0.000241484 698.0 (m) DEBRIS
THOR ABLESTAR DEB LEO 2025-03-29 18:00:55 0.0001688835 605.0 (m) DEBRIS
CZ-6A DEB SSO 2024-08-15 15:06:28 0.0001480174 269.0 (m) DEBRIS

Associated space launch

The newer FY-3 series is an improved generation of polar-orbiting heliosynchronous weather satellites.

CZ-4C R/B was lifted into orbit during the mission ‘Long March 4C | Fengyun-3F’, on board a Long March 4C space rocket.

The launch took place on Aug. 3, 2023, 3:47 a.m. from Launch Area 4 (SLS-2 / 603).

For more information about the launch, click the button.

Launch to space Long March 4C | Fengyun-3F
Long March 4C | Fengyun-3F

Agency: N/A

Status: Launch Successful

Launch date: Aug. 3, 2023, 3:47 a.m. UTC

Rocket: Long March 4C

Launch pad: Launch Area 4 (SLS-2 / 603)

Location: Jiuquan Satellite Launch Center, People's Republic of China

...

Latest news about this satellite

News about space launch
China launches four rockets and outlines future lunar mission

China has picked up its launch cadence in the last two weeks as they continue to push forward in its ambitious 2023 launch schedule. Not only did they launch three rockets from the Chang Zheng family in a short period of time, but also Gushenxing-1 from S...

News about space launch
Launch Roundup: SpaceX launches Galaxy 37; will launch Starlink Group 6-8

Breaking into the 31st week of 2023, from July 31 to Aug. 6, not much is held in store in terms of launches. Up first this week, a momentous flight took place when the last Antares 230+ flew to LEO during the NG-19 resupply mission to the International Sp...


Newsletter sign-up

Weekly statistics, charts and insights to help you stay on top of the space industry.